Yosemite National Park, California, United States (95389)
Lat: 37.54N, Lon: 119.84W
Wx Zone: CAZ093
Local Info
Past Weather Observations for Thursday, August 28, 2014

NOTE: This archive is for the closest National Weather Service station to Yosemite National Park. Information may differ from the station used for current weather conditions.

Click here for Long-term Archive

Time Weather Temperature Dewpoint Humidity Pressure Winds Precip Visibility
23:53
Clear
70°F / 21°C 55°F / 13°C 60% 29.89 in
(1012 mb)
SSW 6.9 mph
(SSW 11 kph)
- 10SM
22:53
Clear
77°F / 25°C 54°F / 12°C 44% 29.89 in
(1012 mb)
N 6.9 mph
(N 11 kph)
- 10SM
21:53
Clear
81°F / 27°C 54°F / 12°C 39% 29.89 in
(1012 mb)
N 9.2 mph
(N 15 kph)
- 10SM
20:53
Clear
79°F / 26°C 50°F / 10°C 37% 29.89 in
(1012 mb)
NNW 6.9 mph
(NNW 11 kph)
- 10SM
19:53
Clear
84°F / 29°C 52°F / 11°C 33% 29.89 in
(1012 mb)
NW 4.6 mph
(NW 7 kph)
- 10SM
18:53
Clear
88°F / 31°C 50°F / 10°C 27% 29.86 in
(1011 mb)
NW 5.8 mph
(NW 9 kph)
- 10SM
17:53
Clear
95°F / 35°C 48°F / 9°C 20% 29.86 in
(1011 mb)
NNW 8.1 mph
(NNW 13 kph)
- 10SM
16:53
Clear
97°F / 36°C 48°F / 9°C 19% 29.86 in
(1011 mb)
NW 10.4 mph
(NW 17 kph)
- 10SM
15:53
Clear
99°F / 37°C 48°F / 9°C 18% 29.89 in
(1012 mb)
WNW 8.1 mph
(WNW 13 kph)
- 10SM
14:53
Clear
99°F / 37°C 50°F / 10°C 19% 29.89 in
(1012 mb)
WNW 8.1 mph
(WNW 13 kph)
- 10SM
13:53
Clear
97°F / 36°C 48°F / 9°C 19% 29.92 in
(1013 mb)
SW 6.9 mph
(SW 11 kph)
- 10SM
12:53
Clear
97°F / 36°C 52°F / 11°C 22% 29.95 in
(1014 mb)
SSW 5.8 mph
(SSW 9 kph)
- 10SM
11:53
Clear
93°F / 34°C 52°F / 11°C 24% 29.98 in
(1015 mb)
Variable 4.6 mph
(Variable 7 kph)
- 10SM
10:53
Clear
90°F / 32°C 48°F / 9°C 24% 29.98 in
(1015 mb)
Variable 3.5 mph
(Variable 6 kph)
- 10SM
09:53
Clear
88°F / 31°C 50°F / 10°C 27% 30.01 in
(1016 mb)
NNW 3.5 mph
(NNW 6 kph)
- 10SM
08:53
Clear
82°F / 28°C 48°F / 9°C 30% 30.01 in
(1016 mb)
N 6.9 mph
(N 11 kph)
- 10SM
07:53
Clear
79°F / 26°C 50°F / 10°C 37% 30.01 in
(1016 mb)
N 9.2 mph
(N 15 kph)
- 9SM
06:53
Clear
72°F / 22°C 52°F / 11°C 50% 30.01 in
(1016 mb)
NNW 6.9 mph
(NNW 11 kph)
- 8SM
05:53
Clear
64°F / 18°C 55°F / 13°C 73% 30.01 in
(1016 mb)
Calm - 8SM
04:53
Clear
64°F / 18°C 55°F / 13°C 73% 30.01 in
(1016 mb)
Calm - 10SM
03:53
Clear
66°F / 19°C 54°F / 12°C 64% 30.01 in
(1016 mb)
NW 3.5 mph
(NW 6 kph)
- 10SM
02:53
Clear
73°F / 23°C 48°F / 9°C 41% 29.98 in
(1015 mb)
W 4.6 mph
(W 7 kph)
- 10SM
01:53
Clear
73°F / 23°C 52°F / 11°C 47% 30.01 in
(1016 mb)
NW 6.9 mph
(NW 11 kph)
- 10SM
00:53
Clear
73°F / 23°C 55°F / 13°C 53% 30.01 in
(1016 mb)
NW 4.6 mph
(NW 7 kph)
- 10SM
Time Weather Temperature Dewpoint Humidity Pressure Winds Precip Visibility


Weather for websites

WeatherForYou.com, LLC is not responsible for any damages or problems caused by this service. Current weather conditions are obtained from the closest station including government and personal stations which may have varying degrees of accuracy. Weather forecasts are derived from the NOAA NDFD. Like all things, this site belongs to Jesus Christ... He just trusts me to maintain it. If you have any questions or comments email webmaster@weatherforyou.com

Copyright © 2014, WeatherForYou.com LLC. All rights reserved.